Location: Banios
(43.0451°N, 0.2335°E)
Time: 13:28:25
(UTC+00:00)

USA 306 - Pass Details

Date: 25 January 2021
Orbit: 565 x 578 km, 54.0° (Epoch: 24 February)

Event Time Altitude Azimuth Distance (km) Brightness Sun altitude
Exits shadow 04:58:10 46° 143° (SE) 762 3.7 -26.0°
Maximum altitude 04:58:20 46° 135° (SE) 759 3.7 -26.0°
Drops below altitude 10° 05:02:24 10° 62° (ENE) 1,862 6.3 -25.2°
Sets 05:04:42 0° 56° (ENE) 2,762 7.2 -24.8°
